owner,sensor,date,latitude,longitude,air_temperature,qcFlag 
WAVCIS,ioos:station:WAVCIS:CSI09:1,2010-10-01T00:00:00Z,29.1015,-89.9782,26.64,11111222 
WAVCIS,ioos:station:WAVCIS:CSI09:1,2010-10-01T01:00:00Z,29.1015,-89.9782,26.56,11111222 
WAVCIS,ioos:station:WAVCIS:CSI09:1,2010-10-01T02:00:00Z,29.1015,-89.9782,26.73,11111222 
WAVCIS,ioos:station:WAVCIS:CSI09:1,2010-10-01T03:00:00Z,29.1015,-89.9782,26.29,11111222 
WAVCIS,ioos:station:WAVCIS:CSI09:1,2010-10-01T04:00:00Z,29.1015,-89.9782,25.29,11111222 
WAVCIS,ioos:station:WAVCIS:CSI09:1,2010-10-01T05:00:00Z,29.1015,-89.9782,25.14,11111222 
WAVCIS,ioos:station:WAVCIS:CSI09:1,2010-10-01T06:00:00Z,29.1015,-89.9782,24.95,11111222 
WAVCIS,ioos:station:WAVCIS:CSI09:1,2010-10-01T07:00:00Z,29.1015,-89.9782,24.53,11111222 
WAVCIS,ioos:station:WAVCIS:CSI09:1,2010-10-01T08:00:00Z,29.1015,-89.9782,24.67,11111222 
WAVCIS,ioos:station:WAVCIS:CSI09:1,2010-10-01T09:00:00Z,29.1015,-89.9782,24.15,11111222 
WAVCIS,ioos:station:WAVCIS:CSI09:1,2010-10-01T10:00:00Z,29.1015,-89.9782,23.94,11111222 
WAVCIS,ioos:station:WAVCIS:CSI09:1,2010-10-01T11:00:00Z,29.1015,-89.9782,24.21,11111222 
WAVCIS,ioos:station:WAVCIS:CSI09:1,2010-10-01T12:00:00Z,29.1015,-89.9782,23.65,11111222 
WAVCIS,ioos:station:WAVCIS:CSI09:1,2010-10-01T13:00:00Z,29.1015,-89.9782,23.59,11111222 
WAVCIS,ioos:station:WAVCIS:CSI09:1,2010-10-01T14:00:00Z,29.1015,-89.9782,23.41,11111222 
WAVCIS,ioos:station:WAVCIS:CSI09:1,2010-10-01T15:00:00Z,29.1015,-89.9782,23.82,11111222 
WAVCIS,ioos:station:WAVCIS:CSI09:1,2010-10-01T16:00:00Z,29.1015,-89.9782,23.91,11111222 
WAVCIS,ioos:station:WAVCIS:CSI09:1,2010-10-01T17:00:00Z,29.1015,-89.9782,24.32,11111222 
WAVCIS,ioos:station:WAVCIS:CSI09:1,2010-10-01T18:00:00Z,29.1015,-89.9782,24.86,11111222 
WAVCIS,ioos:station:WAVCIS:CSI09:1,2010-10-01T19:00:00Z,29.1015,-89.9782,25.52,11111222 
WAVCIS,ioos:station:WAVCIS:CSI09:1,2010-10-01T20:00:00Z,29.1015,-89.9782,26.15,11111222 
WAVCIS,ioos:station:WAVCIS:CSI09:1,2010-10-01T21:00:00Z,29.1015,-89.9782,26.81,11111222 
WAVCIS,ioos:station:WAVCIS:CSI09:1,2010-10-01T22:00:00Z,29.1015,-89.9782,27.05,11111222 
WAVCIS,ioos:station:WAVCIS:CSI09:1,2010-10-01T23:00:00Z,29.1015,-89.9782,27.17,11111222 
WAVCIS,ioos:station:WAVCIS:CSI09:1,2010-10-02T00:00:00Z,29.1015,-89.9782,26.74,11111222 
WAVCIS,ioos:station:WAVCIS:CSI09:1,2010-10-02T01:00:00Z,29.1015,-89.9782,26.83,11111222 
WAVCIS,ioos:station:WAVCIS:CSI09:1,2010-10-02T02:00:00Z,29.1015,-89.9782,26.77,11111222 
WAVCIS,ioos:station:WAVCIS:CSI09:1,2010-10-02T03:00:00Z,29.1015,-89.9782,26.07,11111222 
WAVCIS,ioos:station:WAVCIS:CSI09:1,2010-10-02T04:00:00Z,29.1015,-89.9782,25.1,11111222 
WAVCIS,ioos:station:WAVCIS:CSI09:1,2010-10-02T05:00:00Z,29.1015,-89.9782,24.15,11111222 
WAVCIS,ioos:station:WAVCIS:CSI09:1,2010-10-02T06:00:00Z,29.1015,-89.9782,24.15,11111222 
WAVCIS,ioos:station:WAVCIS:CSI09:1,2010-10-02T07:00:00Z,29.1015,-89.9782,24.03,11111222 
WAVCIS,ioos:station:WAVCIS:CSI09:1,2010-10-02T08:00:00Z,29.1015,-89.9782,23.93,11111222 
WAVCIS,ioos:station:WAVCIS:CSI09:1,2010-10-02T09:00:00Z,29.1015,-89.9782,23.06,11111222 
WAVCIS,ioos:station:WAVCIS:CSI09:1,2010-10-02T10:00:00Z,29.1015,-89.9782,22.39,11111222 
WAVCIS,ioos:station:WAVCIS:CSI09:1,2010-10-02T11:00:00Z,29.1015,-89.9782,22.2,11111222 
WAVCIS,ioos:station:WAVCIS:CSI09:1,2010-10-02T12:00:00Z,29.1015,-89.9782,22.32,11111222 
WAVCIS,ioos:station:WAVCIS:CSI09:1,2010-10-02T13:00:00Z,29.1015,-89.9782,22.03,11111222 
WAVCIS,ioos:station:WAVCIS:CSI09:1,2010-10-02T14:00:00Z,29.1015,-89.9782,21.87,11111222 
WAVCIS,ioos:station:WAVCIS:CSI09:1,2010-10-02T15:00:00Z,29.1015,-89.9782,22.52,11111222 
WAVCIS,ioos:station:WAVCIS:CSI09:1,2010-10-02T16:00:00Z,29.1015,-89.9782,23.1,11111222 
WAVCIS,ioos:station:WAVCIS:CSI09:1,2010-10-02T17:00:00Z,29.1015,-89.9782,23.42,11111222 
WAVCIS,ioos:station:WAVCIS:CSI09:1,2010-10-02T18:00:00Z,29.1015,-89.9782,23.92,11111222 
WAVCIS,ioos:station:WAVCIS:CSI09:1,2010-10-02T19:00:00Z,29.1015,-89.9782,24.4,11111222 
WAVCIS,ioos:station:WAVCIS:CSI09:1,2010-10-02T20:00:00Z,29.1015,-89.9782,24.46,11111222 
WAVCIS,ioos:station:WAVCIS:CSI09:1,2010-10-02T21:00:00Z,29.1015,-89.9782,24.84,11111222 
WAVCIS,ioos:station:WAVCIS:CSI09:1,2010-10-02T22:00:00Z,29.1015,-89.9782,25.07,11111222 
WAVCIS,ioos:station:WAVCIS:CSI09:1,2010-10-02T23:00:00Z,29.1015,-89.9782,25.38,11111222 
WAVCIS,ioos:station:WAVCIS:CSI09:1,2010-10-03T00:00:00Z,29.1015,-89.9782,25.3,11111222 
WAVCIS,ioos:station:WAVCIS:CSI09:1,2010-10-03T01:00:00Z,29.1015,-89.9782,25.38,11111222 
WAVCIS,ioos:station:WAVCIS:CSI09:1,2010-10-03T02:00:00Z,29.1015,-89.9782,25.18,11111222 
WAVCIS,ioos:station:WAVCIS:CSI09:1,2010-10-03T03:00:00Z,29.1015,-89.9782,24.41,11111222 
WAVCIS,ioos:station:WAVCIS:CSI09:1,2010-10-03T04:00:00Z,29.1015,-89.9782,24.65,11111222 
WAVCIS,ioos:station:WAVCIS:CSI09:1,2010-10-03T05:00:00Z,29.1015,-89.9782,23.94,11111222 
WAVCIS,ioos:station:WAVCIS:CSI09:1,2010-10-03T06:00:00Z,29.1015,-89.9782,24.24,11111222 
WAVCIS,ioos:station:WAVCIS:CSI09:1,2010-10-03T07:00:00Z,29.1015,-89.9782,23.49,11111222 
WAVCIS,ioos:station:WAVCIS:CSI09:1,2010-10-03T08:00:00Z,29.1015,-89.9782,23.23,11111222 
WAVCIS,ioos:station:WAVCIS:CSI09:1,2010-10-03T09:00:00Z,29.1015,-89.9782,23.61,11111222 
WAVCIS,ioos:station:WAVCIS:CSI09:1,2010-10-03T10:00:00Z,29.1015,-89.9782,23.08,11111222 
WAVCIS,ioos:station:WAVCIS:CSI09:1,2010-10-03T11:00:00Z,29.1015,-89.9782,22.65,11111222 
WAVCIS,ioos:station:WAVCIS:CSI09:1,2010-10-03T12:00:00Z,29.1015,-89.9782,21.03,11111222 
WAVCIS,ioos:station:WAVCIS:CSI09:1,2010-10-03T13:00:00Z,29.1015,-89.9782,19.55,11111222 
WAVCIS,ioos:station:WAVCIS:CSI09:1,2010-10-03T14:00:00Z,29.1015,-89.9782,18.96,11111222 
WAVCIS,ioos:station:WAVCIS:CSI09:1,2010-10-03T15:00:00Z,29.1015,-89.9782,18.95,11111222 
WAVCIS,ioos:station:WAVCIS:CSI09:1,2010-10-03T16:00:00Z,29.1015,-89.9782,19.14,11111222 
WAVCIS,ioos:station:WAVCIS:CSI09:1,2010-10-03T17:00:00Z,29.1015,-89.9782,19.74,11111222 
WAVCIS,ioos:station:WAVCIS:CSI09:1,2010-10-03T18:00:00Z,29.1015,-89.9782,20.63,11111222 
WAVCIS,ioos:station:WAVCIS:CSI09:1,2010-10-03T19:00:00Z,29.1015,-89.9782,21.78,11111222 
WAVCIS,ioos:station:WAVCIS:CSI09:1,2010-10-03T20:00:00Z,29.1015,-89.9782,22.59,11111222 
WAVCIS,ioos:station:WAVCIS:CSI09:1,2010-10-03T21:00:00Z,29.1015,-89.9782,22.99,11111222 
WAVCIS,ioos:station:WAVCIS:CSI09:1,2010-10-03T22:00:00Z,29.1015,-89.9782,23.21,11111222 
WAVCIS,ioos:station:WAVCIS:CSI09:1,2010-10-03T23:00:00Z,29.1015,-89.9782,22.9,11111222 
WAVCIS,ioos:station:WAVCIS:CSI09:1,2010-10-04T00:00:00Z,29.1015,-89.9782,22.81,11111222 
WAVCIS,ioos:station:WAVCIS:CSI09:1,2010-10-04T01:00:00Z,29.1015,-89.9782,22.48,11111222 
WAVCIS,ioos:station:WAVCIS:CSI09:1,2010-10-04T02:00:00Z,29.1015,-89.9782,22.26,11111222 
WAVCIS,ioos:station:WAVCIS:CSI09:1,2010-10-04T03:00:00Z,29.1015,-89.9782,21.83,11111222 
WAVCIS,ioos:station:WAVCIS:CSI09:1,2010-10-04T04:00:00Z,29.1015,-89.9782,21.47,11111222 
WAVCIS,ioos:station:WAVCIS:CSI09:1,2010-10-04T05:00:00Z,29.1015,-89.9782,20.96,11111222 
WAVCIS,ioos:station:WAVCIS:CSI09:1,2010-10-04T06:00:00Z,29.1015,-89.9782,20.63,11111222 
WAVCIS,ioos:station:WAVCIS:CSI09:1,2010-10-04T07:00:00Z,29.1015,-89.9782,20.18,11111222 
WAVCIS,ioos:station:WAVCIS:CSI09:1,2010-10-04T08:00:00Z,29.1015,-89.9782,19.44,11111222 
WAVCIS,ioos:station:WAVCIS:CSI09:1,2010-10-04T09:00:00Z,29.1015,-89.9782,18.96,11111222 
WAVCIS,ioos:station:WAVCIS:CSI09:1,2010-10-04T10:00:00Z,29.1015,-89.9782,18.57,11111222 
WAVCIS,ioos:station:WAVCIS:CSI09:1,2010-10-04T11:00:00Z,29.1015,-89.9782,18.38,11111222 
WAVCIS,ioos:station:WAVCIS:CSI09:1,2010-10-04T12:00:00Z,29.1015,-89.9782,18.14,11111222 
WAVCIS,ioos:station:WAVCIS:CSI09:1,2010-10-04T13:00:00Z,29.1015,-89.9782,18.07,11111222 
WAVCIS,ioos:station:WAVCIS:CSI09:1,2010-10-04T14:00:00Z,29.1015,-89.9782,17.58,11111222 
WAVCIS,ioos:station:WAVCIS:CSI09:1,2010-10-04T15:00:00Z,29.1015,-89.9782,17.88,11111222 
WAVCIS,ioos:station:WAVCIS:CSI09:1,2010-10-04T16:00:00Z,29.1015,-89.9782,17.76,11111222 
WAVCIS,ioos:station:WAVCIS:CSI09:1,2010-10-04T17:00:00Z,29.1015,-89.9782,17.74,11111222 
WAVCIS,ioos:station:WAVCIS:CSI09:1,2010-10-04T18:00:00Z,29.1015,-89.9782,17.75,11111222 
WAVCIS,ioos:station:WAVCIS:CSI09:1,2010-10-04T19:00:00Z,29.1015,-89.9782,18.08,11111222 
WAVCIS,ioos:station:WAVCIS:CSI09:1,2010-10-04T20:00:00Z,29.1015,-89.9782,18.23,11111222 
WAVCIS,ioos:station:WAVCIS:CSI09:1,2010-10-04T21:00:00Z,29.1015,-89.9782,18.63,11111222 
WAVCIS,ioos:station:WAVCIS:CSI09:1,2010-10-04T22:00:00Z,29.1015,-89.9782,19.15,11111222 
WAVCIS,ioos:station:WAVCIS:CSI09:1,2010-10-04T23:00:00Z,29.1015,-89.9782,19.93,11111222 
WAVCIS,ioos:station:WAVCIS:CSI09:1,2010-10-05T00:00:00Z,29.1015,-89.9782,20.01,11111222 
WAVCIS,ioos:station:WAVCIS:CSI09:1,2010-10-05T01:00:00Z,29.1015,-89.9782,20.51,11111222 
WAVCIS,ioos:station:WAVCIS:CSI09:1,2010-10-05T02:00:00Z,29.1015,-89.9782,20.82,11111222 
WAVCIS,ioos:station:WAVCIS:CSI09:1,2010-10-05T03:00:00Z,29.1015,-89.9782,20.73,11111222 
WAVCIS,ioos:station:WAVCIS:CSI09:1,2010-10-05T04:00:00Z,29.1015,-89.9782,20.69,11111222 
WAVCIS,ioos:station:WAVCIS:CSI09:1,2010-10-05T05:00:00Z,29.1015,-89.9782,20.61,11111222 
WAVCIS,ioos:station:WAVCIS:CSI09:1,2010-10-05T06:00:00Z,29.1015,-89.9782,20.31,11111222 
WAVCIS,ioos:station:WAVCIS:CSI09:1,2010-10-05T07:00:00Z,29.1015,-89.9782,20.07,11111222 
WAVCIS,ioos:station:WAVCIS:CSI09:1,2010-10-05T08:00:00Z,29.1015,-89.9782,19.76,11111222 
WAVCIS,ioos:station:WAVCIS:CSI09:1,2010-10-05T09:00:00Z,29.1015,-89.9782,19.22,11111222 
WAVCIS,ioos:station:WAVCIS:CSI09:1,2010-10-05T10:00:00Z,29.1015,-89.9782,18.8,11111222 
WAVCIS,ioos:station:WAVCIS:CSI09:1,2010-10-05T11:00:00Z,29.1015,-89.9782,18.54,11111222 
WAVCIS,ioos:station:WAVCIS:CSI09:1,2010-10-05T12:00:00Z,29.1015,-89.9782,19.05,11111222 
WAVCIS,ioos:station:WAVCIS:CSI09:1,2010-10-05T13:00:00Z,29.1015,-89.9782,19.1,11111222 
WAVCIS,ioos:station:WAVCIS:CSI09:1,2010-10-05T14:00:00Z,29.1015,-89.9782,18.96,11111222 
WAVCIS,ioos:station:WAVCIS:CSI09:1,2010-10-05T15:00:00Z,29.1015,-89.9782,19.05,11111222 
WAVCIS,ioos:station:WAVCIS:CSI09:1,2010-10-05T16:00:00Z,29.1015,-89.9782,18.86,11111222 
WAVCIS,ioos:station:WAVCIS:CSI09:1,2010-10-05T17:00:00Z,29.1015,-89.9782,18.49,11111222 
WAVCIS,ioos:station:WAVCIS:CSI09:1,2010-10-05T18:00:00Z,29.1015,-89.9782,18.2,11111222 
WAVCIS,ioos:station:WAVCIS:CSI09:1,2010-10-05T19:00:00Z,29.1015,-89.9782,18.43,11111222 
WAVCIS,ioos:station:WAVCIS:CSI09:1,2010-10-05T20:00:00Z,29.1015,-89.9782,18.58,11111222 
WAVCIS,ioos:station:WAVCIS:CSI09:1,2010-10-05T21:00:00Z,29.1015,-89.9782,19.1,11111222 
WAVCIS,ioos:station:WAVCIS:CSI09:1,2010-10-05T22:00:00Z,29.1015,-89.9782,19.71,11111222 
WAVCIS,ioos:station:WAVCIS:CSI09:1,2010-10-05T23:00:00Z,29.1015,-89.9782,20.25,11111222 
WAVCIS,ioos:station:WAVCIS:CSI09:1,2010-10-06T00:00:00Z,29.1015,-89.9782,20.38,11111222 
WAVCIS,ioos:station:WAVCIS:CSI09:1,2010-10-06T01:00:00Z,29.1015,-89.9782,20.69,11111222 
WAVCIS,ioos:station:WAVCIS:CSI09:1,2010-10-06T02:00:00Z,29.1015,-89.9782,21.01,11111222 
WAVCIS,ioos:station:WAVCIS:CSI09:1,2010-10-06T03:00:00Z,29.1015,-89.9782,20.98,11111222 
WAVCIS,ioos:station:WAVCIS:CSI09:1,2010-10-06T04:00:00Z,29.1015,-89.9782,21.36,11111222 
WAVCIS,ioos:station:WAVCIS:CSI09:1,2010-10-06T05:00:00Z,29.1015,-89.9782,21.3,11111222 
WAVCIS,ioos:station:WAVCIS:CSI09:1,2010-10-06T06:00:00Z,29.1015,-89.9782,21.23,11111222 
WAVCIS,ioos:station:WAVCIS:CSI09:1,2010-10-06T07:00:00Z,29.1015,-89.9782,21.11,11111222 
WAVCIS,ioos:station:WAVCIS:CSI09:1,2010-10-06T08:00:00Z,29.1015,-89.9782,20.92,11111222 
WAVCIS,ioos:station:WAVCIS:CSI09:1,2010-10-06T09:00:00Z,29.1015,-89.9782,20.59,11111222 
WAVCIS,ioos:station:WAVCIS:CSI09:1,2010-10-06T10:00:00Z,29.1015,-89.9782,20.5,11111222 
WAVCIS,ioos:station:WAVCIS:CSI09:1,2010-10-06T11:00:00Z,29.1015,-89.9782,20.36,11111222 
WAVCIS,ioos:station:WAVCIS:CSI09:1,2010-10-06T12:00:00Z,29.1015,-89.9782,19.77,11111222 
WAVCIS,ioos:station:WAVCIS:CSI09:1,2010-10-06T13:00:00Z,29.1015,-89.9782,19.9,11111222 
WAVCIS,ioos:station:WAVCIS:CSI09:1,2010-10-06T14:00:00Z,29.1015,-89.9782,19.8,11111222 
WAVCIS,ioos:station:WAVCIS:CSI09:1,2010-10-06T15:00:00Z,29.1015,-89.9782,19.94,11111222 
WAVCIS,ioos:station:WAVCIS:CSI09:1,2010-10-06T16:00:00Z,29.1015,-89.9782,20.01,11111222 
WAVCIS,ioos:station:WAVCIS:CSI09:1,2010-10-06T17:00:00Z,29.1015,-89.9782,20.3,11111222 
WAVCIS,ioos:station:WAVCIS:CSI09:1,2010-10-06T18:00:00Z,29.1015,-89.9782,20.83,11111222 
WAVCIS,ioos:station:WAVCIS:CSI09:1,2010-10-06T19:00:00Z,29.1015,-89.9782,20.93,11111222 
WAVCIS,ioos:station:WAVCIS:CSI09:1,2010-10-06T20:00:00Z,29.1015,-89.9782,21.05,11111222 
WAVCIS,ioos:station:WAVCIS:CSI09:1,2010-10-06T21:00:00Z,29.1015,-89.9782,21.37,11111222 
WAVCIS,ioos:station:WAVCIS:CSI09:1,2010-10-06T22:00:00Z,29.1015,-89.9782,21.72,11111222 
WAVCIS,ioos:station:WAVCIS:CSI09:1,2010-10-06T23:00:00Z,29.1015,-89.9782,21.81,11111222 
WAVCIS,ioos:station:WAVCIS:CSI09:1,2010-10-07T00:00:00Z,29.1015,-89.9782,21.63,11111222 
WAVCIS,ioos:station:WAVCIS:CSI09:1,2010-10-07T01:00:00Z,29.1015,-89.9782,21.79,11111222 
WAVCIS,ioos:station:WAVCIS:CSI09:1,2010-10-07T02:00:00Z,29.1015,-89.9782,22.24,11111222 
WAVCIS,ioos:station:WAVCIS:CSI09:1,2010-10-07T03:00:00Z,29.1015,-89.9782,22.33,11111222 
WAVCIS,ioos:station:WAVCIS:CSI09:1,2010-10-07T04:00:00Z,29.1015,-89.9782,22.12,11111222 
WAVCIS,ioos:station:WAVCIS:CSI09:1,2010-10-07T05:00:00Z,29.1015,-89.9782,22.07,11111222 
WAVCIS,ioos:station:WAVCIS:CSI09:1,2010-10-07T06:00:00Z,29.1015,-89.9782,21.69,11111222 
WAVCIS,ioos:station:WAVCIS:CSI09:1,2010-10-07T07:00:00Z,29.1015,-89.9782,21.07,11111222 
WAVCIS,ioos:station:WAVCIS:CSI09:1,2010-10-07T08:00:00Z,29.1015,-89.9782,20.89,11111222 
WAVCIS,ioos:station:WAVCIS:CSI09:1,2010-10-07T09:00:00Z,29.1015,-89.9782,20.41,11111222 
WAVCIS,ioos:station:WAVCIS:CSI09:1,2010-10-07T10:00:00Z,29.1015,-89.9782,20.85,11111222 
WAVCIS,ioos:station:WAVCIS:CSI09:1,2010-10-07T11:00:00Z,29.1015,-89.9782,20.61,11111222 
WAVCIS,ioos:station:WAVCIS:CSI09:1,2010-10-07T12:00:00Z,29.1015,-89.9782,20.74,11111222 
WAVCIS,ioos:station:WAVCIS:CSI09:1,2010-10-07T13:00:00Z,29.1015,-89.9782,20.52,11111222 
WAVCIS,ioos:station:WAVCIS:CSI09:1,2010-10-07T14:00:00Z,29.1015,-89.9782,20.38,11111222 
WAVCIS,ioos:station:WAVCIS:CSI09:1,2010-10-07T15:00:00Z,29.1015,-89.9782,20.88,11111222 
WAVCIS,ioos:station:WAVCIS:CSI09:1,2010-10-07T16:00:00Z,29.1015,-89.9782,21.2,11111222 
WAVCIS,ioos:station:WAVCIS:CSI09:1,2010-10-07T17:00:00Z,29.1015,-89.9782,21.76,11111222 
WAVCIS,ioos:station:WAVCIS:CSI09:1,2010-10-07T18:00:00Z,29.1015,-89.9782,22.46,11111222 
WAVCIS,ioos:station:WAVCIS:CSI09:1,2010-10-07T19:00:00Z,29.1015,-89.9782,23.06,11111222 
WAVCIS,ioos:station:WAVCIS:CSI09:1,2010-10-07T20:00:00Z,29.1015,-89.9782,23.49,11111222 
WAVCIS,ioos:station:WAVCIS:CSI09:1,2010-10-07T21:00:00Z,29.1015,-89.9782,24.12,11111222 
WAVCIS,ioos:station:WAVCIS:CSI09:1,2010-10-07T22:00:00Z,29.1015,-89.9782,24.54,11111222 
WAVCIS,ioos:station:WAVCIS:CSI09:1,2010-10-07T23:00:00Z,29.1015,-89.9782,24.53,11111222 
WAVCIS,ioos:station:WAVCIS:CSI09:1,2010-10-08T00:00:00Z,29.1015,-89.9782,23.29,11111222 
WAVCIS,ioos:station:WAVCIS:CSI09:1,2010-10-08T01:00:00Z,29.1015,-89.9782,23.18,11111222 
WAVCIS,ioos:station:WAVCIS:CSI09:1,2010-10-08T02:00:00Z,29.1015,-89.9782,23.26,11111222 
WAVCIS,ioos:station:WAVCIS:CSI09:1,2010-10-08T03:00:00Z,29.1015,-89.9782,23.02,11111222 
WAVCIS,ioos:station:WAVCIS:CSI09:1,2010-10-08T04:00:00Z,29.1015,-89.9782,22.6,11111222 
WAVCIS,ioos:station:WAVCIS:CSI09:1,2010-10-08T05:00:00Z,29.1015,-89.9782,22.75,11111222 
WAVCIS,ioos:station:WAVCIS:CSI09:1,2010-10-08T06:00:00Z,29.1015,-89.9782,22.16,11111222 
WAVCIS,ioos:station:WAVCIS:CSI09:1,2010-10-08T07:00:00Z,29.1015,-89.9782,22.3,11111222 
WAVCIS,ioos:station:WAVCIS:CSI09:1,2010-10-08T08:00:00Z,29.1015,-89.9782,22.73,11111222 
WAVCIS,ioos:station:WAVCIS:CSI09:1,2010-10-08T09:00:00Z,29.1015,-89.9782,21.51,11111222 
WAVCIS,ioos:station:WAVCIS:CSI09:1,2010-10-08T10:00:00Z,29.1015,-89.9782,20.81,11111222 
WAVCIS,ioos:station:WAVCIS:CSI09:1,2010-10-08T11:00:00Z,29.1015,-89.9782,20.55,11111222 
WAVCIS,ioos:station:WAVCIS:CSI09:1,2010-10-08T12:00:00Z,29.1015,-89.9782,20.34,11111222 
WAVCIS,ioos:station:WAVCIS:CSI09:1,2010-10-08T13:00:00Z,29.1015,-89.9782,20.34,11111222 
WAVCIS,ioos:station:WAVCIS:CSI09:1,2010-10-08T14:00:00Z,29.1015,-89.9782,20.72,11111222 
WAVCIS,ioos:station:WAVCIS:CSI09:1,2010-10-08T15:00:00Z,29.1015,-89.9782,21.26,11111222 
WAVCIS,ioos:station:WAVCIS:CSI09:1,2010-10-08T16:00:00Z,29.1015,-89.9782,22.02,11111222 
WAVCIS,ioos:station:WAVCIS:CSI09:1,2010-10-08T17:00:00Z,29.1015,-89.9782,22.69,11111222 
WAVCIS,ioos:station:WAVCIS:CSI09:1,2010-10-08T18:00:00Z,29.1015,-89.9782,23.35,11111222 
WAVCIS,ioos:station:WAVCIS:CSI09:1,2010-10-08T19:00:00Z,29.1015,-89.9782,24.39,11111222 
WAVCIS,ioos:station:WAVCIS:CSI09:1,2010-10-08T20:00:00Z,29.1015,-89.9782,25.69,11111222 
WAVCIS,ioos:station:WAVCIS:CSI09:1,2010-10-08T21:00:00Z,29.1015,-89.9782,28.88,11111222 
WAVCIS,ioos:station:WAVCIS:CSI09:1,2010-10-08T22:00:00Z,29.1015,-89.9782,27.35,11111222 
WAVCIS,ioos:station:WAVCIS:CSI09:1,2010-10-11T18:00:00Z,29.1015,-89.9782,24.89,11111222 
WAVCIS,ioos:station:WAVCIS:CSI09:1,2010-10-11T19:00:00Z,29.1015,-89.9782,24.68,11111222 
WAVCIS,ioos:station:WAVCIS:CSI09:1,2010-10-11T20:00:00Z,29.1015,-89.9782,24.76,11111222 
WAVCIS,ioos:station:WAVCIS:CSI09:1,2010-10-11T21:00:00Z,29.1015,-89.9782,24.98,11111222 
WAVCIS,ioos:station:WAVCIS:CSI09:1,2010-10-11T22:00:00Z,29.1015,-89.9782,25.14,11111222 
WAVCIS,ioos:station:WAVCIS:CSI09:1,2010-10-11T23:00:00Z,29.1015,-89.9782,25.38,11111222 
WAVCIS,ioos:station:WAVCIS:CSI09:1,2010-10-12T00:00:00Z,29.1015,-89.9782,24.83,11111222 
WAVCIS,ioos:station:WAVCIS:CSI09:1,2010-10-12T01:00:00Z,29.1015,-89.9782,25.35,11111222 
WAVCIS,ioos:station:WAVCIS:CSI09:1,2010-10-12T02:00:00Z,29.1015,-89.9782,24.95,11111222 
WAVCIS,ioos:station:WAVCIS:CSI09:1,2010-10-12T03:00:00Z,29.1015,-89.9782,25.07,11111222 
WAVCIS,ioos:station:WAVCIS:CSI09:1,2010-10-12T04:00:00Z,29.1015,-89.9782,25.1,11111222 
WAVCIS,ioos:station:WAVCIS:CSI09:1,2010-10-12T05:00:00Z,29.1015,-89.9782,24.94,11111222 
WAVCIS,ioos:station:WAVCIS:CSI09:1,2010-10-12T06:00:00Z,29.1015,-89.9782,24.93,11111222 
WAVCIS,ioos:station:WAVCIS:CSI09:1,2010-10-12T07:00:00Z,29.1015,-89.9782,24.9,11111222 
WAVCIS,ioos:station:WAVCIS:CSI09:1,2010-10-12T08:00:00Z,29.1015,-89.9782,24.33,11111222 
WAVCIS,ioos:station:WAVCIS:CSI09:1,2010-10-12T09:00:00Z,29.1015,-89.9782,24.25,11111222 
WAVCIS,ioos:station:WAVCIS:CSI09:1,2010-10-12T10:00:00Z,29.1015,-89.9782,24.2,11111222 
WAVCIS,ioos:station:WAVCIS:CSI09:1,2010-10-12T11:00:00Z,29.1015,-89.9782,24.16,11111222 
WAVCIS,ioos:station:WAVCIS:CSI09:1,2010-10-12T12:00:00Z,29.1015,-89.9782,24.25,11111222 
WAVCIS,ioos:station:WAVCIS:CSI09:1,2010-10-12T13:00:00Z,29.1015,-89.9782,21.71,11111222 
WAVCIS,ioos:station:WAVCIS:CSI09:1,2010-10-12T14:00:00Z,29.1015,-89.9782,23.07,11111222 
WAVCIS,ioos:station:WAVCIS:CSI09:1,2010-10-12T15:00:00Z,29.1015,-89.9782,24.25,11111222 
WAVCIS,ioos:station:WAVCIS:CSI09:1,2010-10-12T16:00:00Z,29.1015,-89.9782,24.88,11111222 
WAVCIS,ioos:station:WAVCIS:CSI09:1,2010-10-12T17:00:00Z,29.1015,-89.9782,24.73,11111222 
WAVCIS,ioos:station:WAVCIS:CSI09:1,2010-10-12T18:00:00Z,29.1015,-89.9782,24.73,11111222 
WAVCIS,ioos:station:WAVCIS:CSI09:1,2010-10-12T19:00:00Z,29.1015,-89.9782,24.69,11111222 
WAVCIS,ioos:station:WAVCIS:CSI09:1,2010-10-12T20:00:00Z,29.1015,-89.9782,24.64,11111222 
WAVCIS,ioos:station:WAVCIS:CSI09:1,2010-10-12T21:00:00Z,29.1015,-89.9782,24.47,11111222 
WAVCIS,ioos:station:WAVCIS:CSI09:1,2010-10-12T22:00:00Z,29.1015,-89.9782,24.74,11111222 
WAVCIS,ioos:station:WAVCIS:CSI09:1,2010-10-12T23:00:00Z,29.1015,-89.9782,24.69,11111222 
WAVCIS,ioos:station:WAVCIS:CSI09:1,2010-10-13T00:00:00Z,29.1015,-89.9782,24.57,11111222 
WAVCIS,ioos:station:WAVCIS:CSI09:1,2010-10-13T01:00:00Z,29.1015,-89.9782,24.31,11111222 
WAVCIS,ioos:station:WAVCIS:CSI09:1,2010-10-13T02:00:00Z,29.1015,-89.9782,24.25,11111222 
WAVCIS,ioos:station:WAVCIS:CSI09:1,2010-10-13T03:00:00Z,29.1015,-89.9782,24.46,11111222 
WAVCIS,ioos:station:WAVCIS:CSI09:1,2010-10-13T04:00:00Z,29.1015,-89.9782,24.33,11111222 
WAVCIS,ioos:station:WAVCIS:CSI09:1,2010-10-13T05:00:00Z,29.1015,-89.9782,24.29,11111222 
WAVCIS,ioos:station:WAVCIS:CSI09:1,2010-10-13T06:00:00Z,29.1015,-89.9782,24.36,11111222 
WAVCIS,ioos:station:WAVCIS:CSI09:1,2010-10-13T07:00:00Z,29.1015,-89.9782,24.21,11111222 
WAVCIS,ioos:station:WAVCIS:CSI09:1,2010-10-13T08:00:00Z,29.1015,-89.9782,24.02,11111222 
WAVCIS,ioos:station:WAVCIS:CSI09:1,2010-10-13T09:00:00Z,29.1015,-89.9782,23.92,11111222 
WAVCIS,ioos:station:WAVCIS:CSI09:1,2010-10-13T10:00:00Z,29.1015,-89.9782,23.27,11111222 
WAVCIS,ioos:station:WAVCIS:CSI09:1,2010-10-13T11:00:00Z,29.1015,-89.9782,22.59,11111222 
WAVCIS,ioos:station:WAVCIS:CSI09:1,2010-10-13T12:00:00Z,29.1015,-89.9782,22.25,11111222 
WAVCIS,ioos:station:WAVCIS:CSI09:1,2010-10-13T13:00:00Z,29.1015,-89.9782,22.24,11111222 
WAVCIS,ioos:station:WAVCIS:CSI09:1,2010-10-13T14:00:00Z,29.1015,-89.9782,22.38,11111222 
WAVCIS,ioos:station:WAVCIS:CSI09:1,2010-10-13T15:00:00Z,29.1015,-89.9782,22.81,11111222 
WAVCIS,ioos:station:WAVCIS:CSI09:1,2010-10-13T16:00:00Z,29.1015,-89.9782,23.2,11111222 
WAVCIS,ioos:station:WAVCIS:CSI09:1,2010-10-13T17:00:00Z,29.1015,-89.9782,23.53,11111222 
WAVCIS,ioos:station:WAVCIS:CSI09:1,2010-10-13T18:00:00Z,29.1015,-89.9782,24.14,11111222 
WAVCIS,ioos:station:WAVCIS:CSI09:1,2010-10-13T19:00:00Z,29.1015,-89.9782,24.87,11111222 
WAVCIS,ioos:station:WAVCIS:CSI09:1,2010-10-13T20:00:00Z,29.1015,-89.9782,26.3,11111222 
WAVCIS,ioos:station:WAVCIS:CSI09:1,2010-10-13T21:00:00Z,29.1015,-89.9782,28.02,11111222 
WAVCIS,ioos:station:WAVCIS:CSI09:1,2010-10-13T22:00:00Z,29.1015,-89.9782,25.65,11111222 
WAVCIS,ioos:station:WAVCIS:CSI09:1,2010-10-13T23:00:00Z,29.1015,-89.9782,25.49,11111222 
WAVCIS,ioos:station:WAVCIS:CSI09:1,2010-10-14T00:00:00Z,29.1015,-89.9782,25.31,11111222 
WAVCIS,ioos:station:WAVCIS:CSI09:1,2010-10-14T01:00:00Z,29.1015,-89.9782,25.17,11111222 
WAVCIS,ioos:station:WAVCIS:CSI09:1,2010-10-14T02:00:00Z,29.1015,-89.9782,25.14,11111222 
WAVCIS,ioos:station:WAVCIS:CSI09:1,2010-10-14T03:00:00Z,29.1015,-89.9782,24.82,11111222 
WAVCIS,ioos:station:WAVCIS:CSI09:1,2010-10-14T04:00:00Z,29.1015,-89.9782,23.8,11111222 
WAVCIS,ioos:station:WAVCIS:CSI09:1,2010-10-14T05:00:00Z,29.1015,-89.9782,23.92,11111222 
WAVCIS,ioos:station:WAVCIS:CSI09:1,2010-10-14T06:00:00Z,29.1015,-89.9782,24.1,11111222 
WAVCIS,ioos:station:WAVCIS:CSI09:1,2010-10-14T07:00:00Z,29.1015,-89.9782,23.55,11111222 
WAVCIS,ioos:station:WAVCIS:CSI09:1,2010-10-14T08:00:00Z,29.1015,-89.9782,22.75,11111222 
WAVCIS,ioos:station:WAVCIS:CSI09:1,2010-10-14T09:00:00Z,29.1015,-89.9782,22.68,11111222 
WAVCIS,ioos:station:WAVCIS:CSI09:1,2010-10-14T10:00:00Z,29.1015,-89.9782,21.98,11111222 
WAVCIS,ioos:station:WAVCIS:CSI09:1,2010-10-14T11:00:00Z,29.1015,-89.9782,21.72,11111222 
WAVCIS,ioos:station:WAVCIS:CSI09:1,2010-10-14T12:00:00Z,29.1015,-89.9782,21.87,11111222 
WAVCIS,ioos:station:WAVCIS:CSI09:1,2010-10-14T13:00:00Z,29.1015,-89.9782,21.7,11111222 
WAVCIS,ioos:station:WAVCIS:CSI09:1,2010-10-14T14:00:00Z,29.1015,-89.9782,21.88,11111222 
WAVCIS,ioos:station:WAVCIS:CSI09:1,2010-10-14T15:00:00Z,29.1015,-89.9782,21.39,11111222 
WAVCIS,ioos:station:WAVCIS:CSI09:1,2010-10-14T16:00:00Z,29.1015,-89.9782,21.72,11111222 
WAVCIS,ioos:station:WAVCIS:CSI09:1,2010-10-14T17:00:00Z,29.1015,-89.9782,21.91,11111222 
WAVCIS,ioos:station:WAVCIS:CSI09:1,2010-10-14T18:00:00Z,29.1015,-89.9782,22.4,11111222 
WAVCIS,ioos:station:WAVCIS:CSI09:1,2010-10-14T19:00:00Z,29.1015,-89.9782,23.17,11111222 
WAVCIS,ioos:station:WAVCIS:CSI09:1,2010-10-14T20:00:00Z,29.1015,-89.9782,24.08,11111222 
WAVCIS,ioos:station:WAVCIS:CSI09:1,2010-10-14T21:00:00Z,29.1015,-89.9782,24.64,11111222 
WAVCIS,ioos:station:WAVCIS:CSI09:1,2010-10-14T22:00:00Z,29.1015,-89.9782,24.82,11111222 
WAVCIS,ioos:station:WAVCIS:CSI09:1,2010-10-14T23:00:00Z,29.1015,-89.9782,24.68,11111222 